Hourly Data Report for October 25, 2015

All times are specified in Local Standard Time (LST). Add 1 hour to adjust for Daylight Saving Time where and when it is observed.

GJOA HAVEN A
NUNAVUT

68°38'08.000" N
95°51'01.000" W
46.90 m
2302337
71597
YHK

Download Data

Hourly Data (October 2015)
Hourly Data Report for October 25, 2015
Temp Definition
°C
Dew Point Temp Definition
°C
Rel Hum Definition
%
Wind Dir Definition
10's deg

Wind Spd Definition
km/h
Visibility Definition
km
Stn Press Definition
kPa
Hmdx Definition


Wind Chill Definition


Weather Definition


TIME
00:00 Legend Double Dagger -15.7 -17.5 86 33 34 8.1 100.04   -28 Snow
01:00 Legend Double Dagger -15.1 -16.8 87 34 43 2.0 100.01   -28 Snow,Blowing Snow
02:00 Legend Double Dagger -15.8 -17.4 88 33 37 4.8 99.98   -28 Snow
03:00 Legend Double Dagger -17.3 -19.1 86 33 50 2.4 99.98   -32 Snow,Blowing Snow
04:00 Legend Double Dagger -16.9 -18.6 87 33 48 1.6 99.98   -31 Snow,Blowing Snow
05:00 Legend Double Dagger -15.8 -17.4 88 34 50 0.8 100.00   -30 Moderate Snow,Blowing Snow
06:00 Legend Double Dagger -15.1 -16.5 89 34 39 0.8 100.05   -27 Moderate Snow
07:00 Legend Double Dagger -14.8 -16.3 89 34 34 2.4 99.99   -26 Snow
08:00 Legend Double Dagger -14.8 -16.2 89 33 52 0.4 99.89   -29 Heavy Snow,Blowing Snow
09:00 Legend Double Dagger -14.2 -15.6 89 32 37 0.6 99.88   -26 Moderate Snow
10:00 Legend Double Dagger -12.9 -14.2 90 32 43 0.6 99.84   -25 Moderate Snow,Blowing Snow
11:00 Legend Double Dagger -12.9 -14.2 90 31 50 0.2 99.77   -26 Heavy Snow,Blowing Snow
12:00 Legend Double Dagger -13.3 -14.8 89 32 54 0.2 99.75   -27 Heavy Snow,Blowing Snow
13:00 Legend Double Dagger -14.0 -15.4 89 34 54 0.2 99.79   -28 Heavy Snow,Blowing Snow
14:00 Legend Double Dagger -14.9 -16.5 88 33 58 0.2 99.76   -29 Heavy Snow,Blowing Snow
15:00 Legend Double Dagger -14.6 -16.0 89 33 45 0.4 99.77   -28 Heavy Snow,Blowing Snow
16:00 Legend Double Dagger -14.9 -16.5 88 33 58 0.4 99.75   -29 Heavy Snow,Blowing Snow
17:00 Legend Double Dagger -13.7 -15.0 90 34 50 0.6 99.78   -27 Moderate Snow,Blowing Snow
18:00 Legend Double Dagger -13.8 -15.2 89 35 52 0.4 99.78   -27 Heavy Snow,Blowing Snow
19:00 Legend Double Dagger -14.4 -16.0 88 35 45 0.8 99.76   -27 Moderate Snow,Blowing Snow
20:00 Legend Double Dagger -14.2 -15.8 88 34 55 0.8 99.72   -28 Moderate Snow,Blowing Snow
21:00 Legend Double Dagger -14.1 -15.4 90 34 46 0.6 99.74   -27 Moderate Snow,Blowing Snow
22:00 Legend Double Dagger -13.9 -15.5 88 34 52 1.0 99.75   -27 Snow,Blowing Snow
23:00 Legend Double Dagger -13.4 -15.0 88 34 52 1.6 99.77   -27 Snow,Blowing Snow

Notes on Data Quality.

Legend

  • E = Estimated
  • M = Missing
  • NA = Not Available
  • ‡ = Partner data that is not subject to review by the National Climate Archives
Date modified: